Overview Statistics Trail Chart Weather Telemetry Raw packets
 

This is the latest recevied weather packets stored in our database for station/object SV9TNF-56. If no packets are shown the sender has not sent any weather packets the latest 10 day(s).

<< 40 41 42 43 44 45 46 >>
Time Temp. Humidity Pressure Rain* Wind** Luminosity Snow
1788387537 25° C 64% 1010.8 hPa 0 mm 8.05 m/s, 257° - -
1788387237 25° C 63% 1010.8 hPa 0 mm 6.26 m/s, 245° - -
1788386936 25° C 63% 1010.8 hPa 0 mm 8.05 m/s, 262° - -
1788386636 25° C 61% 1010.8 hPa 0 mm 10.28 m/s, 266° - -
1788386336 25° C 61% 1010.8 hPa 0 mm 10.28 m/s, 259° - -
1788386036 25.56° C 59% 1010.8 hPa 0 mm 2.24 m/s, 272° - -
1788385736 25.56° C 58% 1010.8 hPa 0 mm 3.58 m/s, 279° - -
1788385436 25° C 58% 1010.8 hPa 0 mm 4.47 m/s, 322° - -
1788385136 25.56° C 60% 1010.8 hPa 0 mm 2.24 m/s, 272° - -
1788384836 25.56° C 58% 1010.8 hPa 0 mm 3.13 m/s, 258° - -
1788384536 25.56° C 57% 1010.8 hPa 0 mm 5.36 m/s, 279° - -
1788384236 25.56° C 56% 1010.8 hPa 0 mm 0 m/s - -
1788383935 26.11° C 56% 1010.8 hPa 0 mm 2.24 m/s, 354° - -
1788383635 26.11° C 55% 1010.8 hPa 0 mm 1.79 m/s, 267° - -
1788383335 26.11° C 55% 1010.8 hPa 0 mm 0 m/s - -
1788383035 25.56° C 54% 1010.8 hPa 0 mm 11.18 m/s, 262° - -
1788382735 25.56° C 59% 1010.8 hPa 0 mm 4.92 m/s, 312° - -
1788382435 25.56° C 61% 1010.8 hPa 0 mm 5.81 m/s, 312° - -
1788382135 25.56° C 60% 1010.8 hPa 0 mm 6.26 m/s, 167° - -
1788381835 25.56° C 59% 1010.8 hPa 0 mm 7.15 m/s, 138° - -
1788381535 25.56° C 59% 1010.8 hPa 0 mm 8.05 m/s, 141° - -
1788381235 25.56° C 60% 1010.8 hPa 0 mm 12.52 m/s, 137° - -
1788380935 25° C 61% 1010.8 hPa 0 mm 13.41 m/s, 198° - -
1788380634 25° C 62% 1010.8 hPa 0 mm 15.2 m/s, 114° - -
1788380334 25° C 63% 1010.8 hPa 0 mm 13.86 m/s, 105° - -

* Rain latest hour (hover to see other rain measurements)
** Current wind speed in m/s (hover to see current wind gust speed)